Find Starlink 30113

NORAD ID: 56291 Int'l Des: 2023-056 Owner: SPXS Country: US Constellation: starlink operational
LEOCIRCULAR

リアルタイム位置

3D地球を読み込み中...

Starlink 30113について

説明を読み込み中...

次回通過

Passes for default location (London). Set your location on the main map for personalized predictions.

高度履歴

Loading altitude history...

軌道要素

1 56291U 23056F 26125.79026708 .00002469 00000-0 99214-4 0 9994
2 56291 43.0051 246.3726 0001793 274.0452 86.0195 15.27581917168776
Epoch: May 5, 2026 • Age: 11 hours

現在のステータス

高度 482.2 km
速度 7.63 km/s
衛星直下点 8.90°N, 60.85°W
打ち上げ日 Apr 19, 2023
運用期間 3 years
タイプ internet

技術仕様

分類 Payload
質量 730.00 kg
乾燥質量 700.00 kg
総質量 730.00 kg
長さ 0.30 m
直径 4.10 m
スパン 29.00 m
形状 Box + pan
製造者 SPXS
バスタイプ Starlink V2M
フェーズステータス In Orbit
所有者/国 SPXS/US

Most Searched